Quincy, IL

3:53 AM CST on November 14, 2019 (GMT -0600)
Quincy Regional-Baldwin

Weather History for KUIN - August, 2019

Change the Weather History Date:

Thursday, August 1, 2019

  Actual Average Record
Temperature  
Mean Temperature 71 °F 76 °F  
Max Temperature 81 °F 86 °F 103 °F (1945)
Min Temperature 61 °F 66 °F 52 °F (1907)
Degree Days  
Heating Degree Days 0 0  
Month to date heating degree days 0 0  
Since 1 June heating degree days 5 16  
Since 1 July heating degree days 0 0  
Cooling Degree Days 6 11  
Month to date cooling degree days 6 11  
Year to date cooling degree days 786 667  
Since 1 June cooling degree days 676 581  
Growing Degree Days 21 (Base 50)    
Moisture  
Dew Point 56 °F    
Average Humidity 59    
Maximum Humidity 84    
Minimum Humidity 33    
Precipitation  
Precipitation 0.00 in 0.12 in 3.14 in (1932)
Month to date precipitation 0.00 0.12  
Year to date precipitation 24.96 22.24  
Sea Level Pressure  
Sea Level Pressure 30.14 in    
Wind  
Wind Speed 5 mph (East)    
Max Wind Speed 13 mph    
Max Gust Speed 18 mph    
Visibility 10 miles    
Events      
T = Trace of Precipitation, MM = Missing Value Source: NWS Daily Summary

Daily Weather History Graph

Daily Weather History Graph

Search for Another Location

Airport or City:

Astronomy

Aug. 01, 2019 Rise Set
Actual Time 6:03 AM CDT 8:18 PM CDT
Civil Twilight 5:32 AM CDT 8:48 PM CDT
Nautical Twilight 4:55 AM CDT 9:25 PM CDT
Astronomical Twilight 4:14 AM CDT 10:06 PM CDT
Moon 6:28 AM CDT (8/1) 9:05 PM CDT (8/1)
Length of Visible Light 15h 15m
Length of Day
14h 15m
New Moon, 1% of the Moon is Illuminated
Aug 1
New Moon
Aug 7
First Quarter
Aug 15
Full
Aug 23
Last Quarter
Aug 30
New

Hourly Weather History & Observations

Time (CDT) Temp. Heat Index Dew Point Humidity Pressure Visibility Wind Dir Wind Speed Gust Speed Precip Events Conditions
12:54 AM 66.9 °F - 60.1 °F 79% 30.12 in 10.0 mi ESE 5.8 mph - N/A   Clear
1:54 AM 64.0 °F - 59.0 °F 84% 30.13 in 10.0 mi ENE 3.5 mph - N/A   Clear
2:54 AM 64.0 °F - 59.0 °F 84% 30.14 in 10.0 mi Calm Calm - N/A   Clear
3:54 AM 64.0 °F - 59.0 °F 84% 30.13 in 10.0 mi ESE 5.8 mph - N/A   Clear
4:54 AM 63.0 °F - 57.9 °F 84% 30.14 in 10.0 mi East 4.6 mph - N/A   Clear
5:54 AM 62.1 °F - 57.9 °F 86% 30.16 in 10.0 mi East 4.6 mph - N/A   Clear
6:54 AM 63.0 °F - 57.9 °F 84% 30.15 in 10.0 mi East 5.8 mph - N/A   Clear
7:54 AM 66.0 °F - 59.0 °F 78% 30.16 in 10.0 mi East 4.6 mph - N/A   Clear
8:54 AM 70.0 °F - 55.9 °F 61% 30.17 in 10.0 mi SE 8.1 mph - N/A   Clear
9:54 AM 73.0 °F - 55.9 °F 55% 30.18 in 10.0 mi East 6.9 mph - N/A   Clear
10:54 AM 75.9 °F - 55.0 °F 48% 30.18 in 10.0 mi East 9.2 mph - N/A   Clear
11:54 AM 77.0 °F - 54.0 °F 45% 30.19 in 10.0 mi ENE 5.8 mph - N/A   Clear
12:54 PM 78.1 °F - 53.1 °F 42% 30.17 in 10.0 mi ENE 5.8 mph - N/A   Clear
1:54 PM 79.0 °F - 51.1 °F 38% 30.16 in 10.0 mi Variable 4.6 mph - N/A   Clear
2:54 PM 80.1 °F - 48.0 °F 32% 30.14 in 10.0 mi ESE 5.8 mph - N/A   Clear
3:54 PM 80.1 °F - 52.0 °F 38% 30.13 in 10.0 mi Variable 3.5 mph - N/A   Clear
4:54 PM 80.1 °F 80.0 °F 54.0 °F 40% 30.12 in 10.0 mi SE 9.2 mph - N/A   Clear
5:54 PM 80.1 °F 80.1 °F 55.0 °F 42% 30.11 in 10.0 mi Variable 5.8 mph - N/A   Clear
6:54 PM 78.1 °F - 57.0 °F 48% 30.10 in 10.0 mi East 3.5 mph - N/A   Clear
7:54 PM 75.9 °F - 57.0 °F 52% 30.11 in 10.0 mi ENE 4.6 mph - N/A   Clear
8:54 PM 73.0 °F - 59.0 °F 61% 30.12 in 10.0 mi Calm Calm - N/A   Clear
9:54 PM 69.1 °F - 59.0 °F 70% 30.13 in 10.0 mi ENE 4.6 mph - N/A   Clear
10:54 PM 64.9 °F - 59.0 °F 81% 30.14 in 10.0 mi NNE 4.6 mph - N/A   Clear
11:54 PM 66.0 °F - 57.9 °F 75% 30.14 in 10.0 mi NE 4.6 mph - N/A   Clear